This is the latest recevied weather packets stored in our database for station/object OE3MHU-13. If no packets are shown the sender has not sent any weather packets the latest 10 day(s).
| Time | Temp. | Humidity | Pressure | Rain* | Wind** | Luminosity | Snow |
|---|---|---|---|---|---|---|---|
| 1777622963 | 14.44° C | 48% | 1030.9 hPa | 0 mm | - | - | - |
| 1777622788 | 12.78° C | 48% | 1031 hPa | 0 mm | - | - | - |
| 1777622781 | 13.89° C | 48% | 1031 hPa | 0 mm | - | - | - |
| 1777622063 | 12.22° C | 48% | 1030.9 hPa | 0 mm | - | - | - |
| 1777621882 | 12.22° C | 48% | 1030.9 hPa | 0 mm | - | - | - |
| 1777621876 | 12.22° C | 48% | 1030.9 hPa | 0 mm | - | - | - |
| 1777621163 | 12.22° C | 47% | 1030.8 hPa | 0 mm | - | - | - |
| 1777620864 | 12.22° C | 48% | 1030.8 hPa | 0 mm | - | - | - |
| 1777620561 | 12.22° C | 48% | 1030.8 hPa | 0 mm | - | - | - |
| 1777620261 | 11.67° C | 49% | 1030.9 hPa | 0 mm | - | - | - |
| 1777619961 | 11.67° C | 49% | 1030.8 hPa | 0 mm | - | - | - |
| 1777619661 | 11.11° C | 49% | 1030.9 hPa | 0 mm | - | - | - |
| 1777619360 | 11.11° C | 49% | 1030.8 hPa | 0 mm | - | - | - |
| 1777619062 | 11.11° C | 48% | 1030.8 hPa | 0 mm | - | - | - |
| 1777618761 | 10.56° C | 49% | 1030.7 hPa | 0 mm | - | - | - |
| 1777618459 | 10.56° C | 49% | 1030.7 hPa | 0 mm | - | - | - |
| 1777618159 | 10.56° C | 49% | 1030.7 hPa | 0 mm | - | - | - |
| 1777617860 | 10.56° C | 49% | 1030.6 hPa | 0 mm | - | - | - |
| 1777617558 | 10° C | 50% | 1030.7 hPa | 0 mm | - | - | - |
| 1777617257 | 10° C | 50% | 1030.7 hPa | 0 mm | - | - | - |
| 1777616957 | 9.44° C | 51% | 1030.7 hPa | 0 mm | - | - | - |
| 1777616657 | 9.44° C | 50% | 1030.6 hPa | 0 mm | - | - | - |
| 1777616357 | 9.44° C | 51% | 1030.6 hPa | 0 mm | - | - | - |
| 1777616057 | 8.89° C | 52% | 1030.8 hPa | 0 mm | - | - | - |
| 1777615757 | 8.89° C | 52% | 1030.7 hPa | 0 mm | - | - | - |
* Rain latest hour (hover to see other rain measurements)
** Current wind speed in m/s (hover to see current wind gust speed)